Helicity
97 90 66 55 33 32 134 173 202 132 187 252 326 298 394 252 253 131 156 194 182 159 129 111 110 118 110 59 83 96 117 98 103 64 33 91 162 162 217 154 168 175 159 133
95 92 73 63 53 100 172 176 184 125 141 261 257 259 163 152 261 256 273 205 179 192 125 119 95 108 68 117 115 95 141 131 104 113 89 104 133 138 137 145 176 137 148 114
90 79 63 64 45 65 139 194 180 218 212 286 216 178 138 129 196 137 213 246 176 170 158 128 124 84 85 142 143 140 159 171 194 150 96 129 118 99 95 110 178 171 165 135
77 75 61 59 38 67 125 192 224 250 221 314 306 277 294 159 202 241 221 161 144 182 167 119 105 58 68 166 219 247 205 207 293 219 165 109 117 136 109 107 112 166 97 68
79 85 79 49 44 112 185 258 307 333 283 248 218 288 280 244 292 272 253 129 125 82 -17 131 38 65 76 124 257 257 348 298 250 198 116 99 99 71 114 77 75 130 108 19
72 82 66 41 49 110 161 259 272 240 193 201 244 265 211 157 235 314 366 275 185 62 -8 67 40 68 65 112 184 221 239 243 138 146 148 158 38 47 120 103 109 131 46 35
61 60 50 36 46 87 113 119 215 201 213 210 216 211 237 224 320 388 268 174 116 152 8 45 90 94 93 97 105 152 144 218 169 112 164 -33 39 51 26 40 31 140 150 102
55 48 48 33 52 84 139 151 153 137 124 76 73 33 16 97 129 221 263 219 169 52 132 40 107 138 59 15 19 162 151 97 159 130 109 40 7 25 -4 20 17 106 140 170
54 41 48 37 45 65 126 112 111 155 102 40 47 23 93 140 116 119 144 97 49 104 97 103 51 20 33 15 86 142 95 90 65 52 54 14 25 -8 44 62 32 83 188 201
40 27 29 36 57 75 107 46 37 98 95 40 32 68 51 119 127 145 137 139 90 169 189 91 52 128 84 105 61 133 106 50 42 85 45 33 16 48 55 23 5 64 106 165
32 32 35 29 40 35 68 34 63 77 76 39 22 24 107 136 103 129 155 234 189 176 138 123 92 22 102 68 85 84 109 56 57 178 117 50 94 119 58 49 49 56 93 128
27 10 36 40 36 20 58 55 71 80 61 13 14 78 28 73 73 136 189 109 179 161 159 112 145 125 136 132 65 89 61 77 44 33 12 65 83 35 77 73 60 63 121 126
39 45 34 30 27 34 54 76 71 106 47 22 39 62 131 81 129 188 167 174 171 212 223 221 211 183 100 90 67 79 75 65 44 41 28 19 58 122 133 107 84 89 125 192
42 39 46 33 27 57 47 41 5 69 124 65 36 85 70 81 118 199 217 252 377 329 316 268 165 158 64 74 35 45 32 45 47 44 28 33 28 113 149 144 128 163 195 198
28 8 16 15 60 34 40 15 67 76 140 73 157 126 120 61 59 76 137 88 153 177 213 209 164 134 74 93 71 46 27 21 33 8 16 45 36 143 149 132 122 130 194 189
41 29 26 44 -23 59 41 59 27 38 117 161 178 173 194 78 10 42 62 8 99 93 116 96 123 95 77 50 54 35 39 22 27 23 89 76 91 120 98 117 98 91 127 159
31 28 40 35 162 111 130 173 143 21 134 230 234 241 178 107 80 68 35 39 54 78 96 108 82 90 65 28 16 20 69 78 94 102 130 115 80 68 93 103 85 94 100 116
29 63 77 140 99 66 161 124 -13 63 58 199 186 202 179 112 120 99 77 69 98 111 75 72 48 81 57 25 38 62 83 81 76 84 66 61 108 137 130 129 135 137 137 151
139 147 127 158 133 147 95 65 47 44 48 63 148 146 122 121 129 133 125 94 90 106 76 69 53 70 21 10 34 48 39 20 44 80 70 103 139 144 128 143 131 137 119 126
182 201 261 214 212 142 124 98 74 82 87 88 128 145 107 122 148 135 117 131 100 64 77 64 46 38 43 18 20 33 15 54 102 107 70 80 104 111 105 114 121 115 112 103
197 254 238 201 177 146 164 145 119 95 92 80 100 111 150 189 122 133 109 76 78 47 55 57 43 38 42 39 49 49 32 45 41 35 44 48 80 76 89 95 93 102 107 90
160 161 128 225 185 180 130 132 101 79 62 100 104 140 156 173 126 94 91 80 79 58 71 75 41 39 48 41 49 44 35 44 37 31 36 26 51 87 109 111 96 97 99 116
207 231 203 162 121 135 102 107 116 96 92 116 141 168 151 133 131 97 81 83 60 58 74 50 24 60 60 56 66 50 33 42 31 15 32 52 68 98 115 108 80 106 106 107
211 188 169 122 106 70 84 129 117 75 44 107 125 147 122 112 104 77 87 54 60 80 70 49 40 60 65 76 65 63 34 24 31 34 41 55 74 81 82 112 121 126 102 98
193 163 134 103 72 82 127 117 97 106 85 107 127 115 104 122 101 89 68 72 62 40 42 37 73 78 73 79 60 44 30 39 55 49 59 64 85 98 89 75 93 103 112 100
141 113 94 105 97 97 150 166 146 141 112 108 78 93 101 83 72 78 71 70 63 57 59 73 91 92 88 80 65 60 50 47 57 60 59 70 75 81 86 105 99 107 129 120
144 124 95 74 83 74 101 148 136 143 117 116 152 141 105 89 89 84 65 55 48 46 81 104 83 70 67 63 83 84 79 84 77 72 73 67 77 103 106 111 99 113 118 123
Wind_Speed
42 38 39 42 37 28 26 35 50 28 16 38 48 51 51 55 55 41 49 55 63 66 58 63 61 61 45 39 40 35 29 43 57 57 61 47 53 48 42 53 46 48 56 66
44 41 41 35 29 23 30 45 45 25 26 47 48 50 54 51 56 48 51 56 53 52 61 67 62 66 74 51 42 43 32 44 61 67 57 43 46 53 53 47 53 63 66 67
46 43 40 35 32 28 35 42 50 43 41 53 47 47 52 52 53 53 50 59 60 62 59 54 61 58 57 48 39 33 32 45 52 55 50 47 49 47 59 65 58 57 58 61
48 43 41 35 35 29 38 49 57 44 50 50 48 45 59 45 46 42 44 77 64 65 66 64 73 74 66 50 44 41 39 51 49 55 64 60 61 59 58 56 50 54 52 56
51 44 41 37 37 31 41 52 51 49 59 52 49 50 51 49 52 42 38 46 63 83 108 69 71 62 66 60 48 44 46 50 59 64 47 52 57 58 66 65 50 58 53 75
48 42 40 38 36 32 42 43 42 51 59 55 50 46 51 79 40 43 48 35 45 46 75 74 84 69 60 50 43 46 45 49 50 59 36 46 68 49 48 56 44 46 67 59
44 41 40 40 38 36 41 40 39 47 64 51 45 49 42 85 68 47 38 34 35 68 64 50 49 51 50 42 51 47 32 54 51 63 47 65 52 44 45 49 59 42 47 32
43 42 41 41 37 35 43 42 42 47 66 57 56 74 82 71 47 44 37 34 37 64 33 47 52 60 66 74 73 47 15 10 51 58 50 56 51 41 43 41 52 6 22 21
43 44 42 43 42 36 41 46 43 52 58 52 62 61 52 50 38 21 32 39 58 28 46 48 54 63 56 56 49 21 31 47 63 48 48 45 35 39 26 31 51 25 11 8
43 46 44 43 43 44 46 50 44 48 54 48 46 53 54 33 34 29 35 33 39 38 53 58 56 61 53 53 55 41 53 55 68 34 47 47 43 30 26 42 46 23 14 9
50 49 48 48 47 51 52 58 51 48 52 57 50 54 45 38 36 38 28 36 52 50 53 60 54 57 58 55 44 38 44 37 42 37 41 51 30 24 33 33 33 23 18 12
57 56 50 48 47 51 54 54 45 38 57 53 51 52 50 51 30 36 43 46 36 38 42 45 45 51 43 37 51 39 51 40 41 44 48 41 37 39 30 26 29 23 18 13
49 47 48 46 50 59 46 50 46 40 59 60 52 51 40 44 35 35 47 48 38 41 35 32 36 47 39 46 44 37 38 42 43 42 42 39 38 34 30 26 25 20 17 12
38 42 41 44 49 40 45 51 48 52 47 54 50 50 54 44 39 45 40 37 37 38 39 40 48 44 36 39 34 38 40 38 40 47 45 44 44 31 19 24 25 23 18 13
36 45 49 50 54 54 56 58 62 58 46 44 42 31 32 26 28 31 19 10 14 17 35 40 42 37 35 31 31 40 42 39 41 44 37 38 40 15 15 19 22 21 18 17
55 57 54 55 56 63 52 48 60 63 42 38 36 30 26 21 19 15 5 18 22 27 26 30 34 34 34 32 42 42 40 37 37 39 25 35 26 19 18 21 21 22 21 19
57 52 52 52 51 39 38 44 39 36 31 28 30 34 26 18 13 21 19 15 23 27 32 35 32 35 39 41 42 39 35 35 30 24 23 28 18 20 18 21 22 24 23 21
58 53 48 52 43 42 37 34 30 32 18 25 35 38 32 26 28 26 27 22 27 30 32 35 37 40 44 48 42 31 29 26 24 27 34 22 19 20 20 22 23 23 22 20
54 47 40 35 32 32 32 30 23 29 28 29 34 40 42 31 31 25 24 28 30 36 36 38 40 47 50 43 28 23 21 32 22 25 25 21 17 18 19 20 20 19 19 17
48 35 33 33 33 30 27 28 31 30 31 31 36 34 35 30 29 26 24 28 31 33 36 36 39 46 40 35 18 14 16 20 14 20 23 19 15 14 15 16 16 17 17 17
43 38 34 30 26 24 29 31 31 33 35 33 33 31 24 30 22 19 26 25 29 30 36 32 37 40 28 23 18 17 16 15 14 22 21 17 17 16 17 17 18 18 19 18
42 30 24 25 27 32 33 35 35 34 36 28 22 19 18 19 20 20 24 27 30 32 28 29 37 34 24 18 10 10 15 16 17 19 20 18 17 18 18 18 17 17 17 18
31 28 31 35 35 38 44 44 37 33 29 26 21 20 21 19 20 21 24 29 32 24 31 40 36 26 21 12 9 12 17 17 18 19 19 18 18 18 17 16 16 16 16 15
32 36 39 38 37 36 35 33 31 27 23 10 10 18 25 25 25 25 26 26 24 28 33 35 25 17 12 10 13 14 17 17 17 18 19 18 17 17 16 15 17 16 14 13
37 34 38 37 32 28 28 28 25 19 15 10 15 20 24 25 26 28 24 25 27 27 29 27 13 15 10 12 14 16 18 18 19 20 20 20 19 17 17 17 17 16 15 13
30 30 33 29 28 26 25 23 17 20 16 17 22 22 23 27 25 28 30 27 31 30 27 15 14 15 15 16 16 18 21 22 21 21 23 22 20 19 19 21 19 16 13 12
30 29 21 19 19 22 24 27 28 29 24 25 26 26 26 22 27 26 28 28 28 19 15 15 15 16 17 17 20 22 21 21 23 24 25 25 24 23 22 22 23 20 19 18
Wind_Direction
259 265 272 275 273 270 273 280 280 283 233 257 269 262 274 295 299 296 292 298 287 286 289 289 286 284 289 301 297 299 291 303 296 295 292 297 294 292 283 281 284 288 292 292
258 262 267 268 268 258 274 278 279 281 236 264 260 274 282 277 292 288 300 292 290 288 283 283 284 283 274 284 287 293 293 299 297 294 299 295 289 284 287 284 285 283 286 287
255 259 261 263 264 258 268 279 276 274 249 274 268 271 278 276 293 276 284 291 286 282 281 280 282 285 281 281 288 291 293 294 295 294 302 306 297 291 277 281 279 285 289 291
253 253 258 259 263 256 263 267 271 273 270 261 266 270 290 272 268 279 284 275 273 277 279 278 272 270 276 285 288 288 288 289 296 292 291 296 294 290 277 274 285 289 293 292
248 249 254 260 263 264 268 262 267 274 278 280 267 259 254 257 284 276 268 244 275 267 241 268 270 273 269 273 282 284 289 292 294 286 296 298 297 283 273 277 287 287 290 279
243 246 252 258 260 259 268 269 277 276 280 278 275 256 241 237 243 265 226 229 271 255 235 263 257 271 274 274 278 279 289 291 293 283 312 304 275 245 279 279 289 288 269 287
241 245 250 256 258 255 268 272 275 277 279 276 276 287 255 235 223 232 275 214 257 215 266 276 269 261 269 275 272 281 284 289 289 281 301 249 274 289 282 276 270 292 295 314
241 244 250 252 256 260 263 274 270 277 277 283 289 275 266 270 268 256 252 259 245 261 264 258 257 257 261 257 265 281 279 251 283 276 283 265 271 285 274 285 279 333 320 333
244 248 250 252 255 256 264 269 273 274 280 289 287 275 285 277 274 254 267 267 255 247 249 252 257 251 257 256 273 286 279 272 250 268 268 270 294 283 321 320 289 348 5 8
246 251 253 251 250 255 264 267 269 270 279 288 285 275 269 279 266 268 255 249 249 237 235 240 246 242 252 260 262 273 254 255 231 274 269 267 274 304 323 306 308 15 40 50
250 252 254 253 250 254 259 262 261 265 278 274 278 265 271 263 256 247 246 242 236 238 237 231 239 245 253 258 274 276 259 269 272 266 270 273 297 321 309 328 351 20 24 34
250 251 251 250 249 251 257 261 265 270 265 263 255 254 252 247 251 243 234 239 237 245 251 256 260 256 266 273 258 278 253 266 267 260 265 281 279 291 324 356 360 12 20 27
249 248 251 248 250 249 255 259 262 266 251 252 251 247 263 254 257 255 243 248 257 260 268 270 267 262 275 261 259 267 265 256 261 261 268 279 287 314 335 355 4 18 21 38
250 247 248 247 252 253 256 257 257 255 247 249 258 253 249 250 257 251 262 267 265 264 266 260 257 258 271 259 268 260 257 257 264 264 274 283 291 326 359 4 13 21 28 41
247 243 244 246 249 251 250 253 244 240 242 248 241 260 270 269 255 256 273 248 268 265 260 257 261 261 271 273 272 262 255 271 270 272 290 304 321 13 34 29 30 37 50 39
233 233 236 240 245 236 238 237 227 227 250 240 238 260 268 268 253 268 277 128 272 267 270 268 264 263 271 272 260 261 264 271 276 286 332 320 359 37 50 46 57 54 50 53
224 226 228 232 222 211 226 224 218 217 234 244 237 238 257 278 277 264 273 282 273 267 264 266 266 264 259 258 264 267 274 280 300 337 351 337 24 26 66 62 66 63 57 55
211 214 215 204 221 224 216 211 211 220 248 263 237 230 239 259 244 256 270 273 265 265 260 258 255 254 251 257 268 273 282 297 316 320 321 359 33 51 63 67 71 71 66 63
203 216 222 218 216 211 208 226 231 238 259 250 249 233 234 254 249 264 268 262 254 251 252 251 249 244 243 263 274 279 295 301 318 321 347 19 46 55 63 67 77 79 84 81
206 215 215 212 216 229 231 232 241 254 262 261 246 244 241 241 245 261 264 263 254 255 254 249 255 247 266 272 280 306 323 331 358 340 343 8 32 48 64 74 87 93 102 101
207 212 213 213 232 231 237 241 250 254 252 257 246 239 235 243 249 260 269 268 263 267 258 262 264 263 276 282 284 306 333 357 7 352 9 45 53 64 65 70 82 89 97 106
215 218 221 233 239 238 243 241 248 251 244 252 234 233 247 259 269 281 286 274 266 271 270 272 271 271 280 296 303 320 335 353 359 0 17 41 54 60 63 72 83 93 94 94
207 223 231 231 240 235 233 232 242 248 248 238 230 235 254 266 285 293 287 274 271 286 272 263 276 277 285 311 335 330 330 346 354 359 11 30 36 45 56 63 68 80 90 92
216 219 220 231 237 241 245 246 249 256 249 202 222 250 259 263 273 284 289 292 291 289 285 281 290 289 304 318 328 343 339 341 352 3 11 23 34 42 45 63 65 76 87 89
225 235 231 235 245 255 252 252 255 255 244 238 249 269 268 268 280 287 297 295 297 299 298 300 300 308 317 323 332 342 347 345 349 357 9 14 20 30 36 39 53 62 67 81
236 243 235 242 241 245 250 252 247 254 253 255 267 277 280 278 292 287 290 297 297 299 303 306 309 319 322 323 333 338 340 342 350 358 3 10 16 21 20 19 25 36 49 53
240 239 253 255 253 252 254 251 245 251 255 260 271 279 283 295 292 297 296 304 309 320 322 321 323 325 328 332 330 331 337 342 345 352 359 4 8 14 12 11 11 16 16 15